Powrót do katalogu

FENGYUN 1C DEB

AktywnyPO
NORAD 30647·DEBRIS·🇨🇳 China

Wystrzelony May 10, 1999 z Taiyuan Satellite Launch Center

Loading…

Następne Przeloty (najbliższe 24 godziny)

TLE

ŚwieżeSource: Space-Track

Epoka: Sep 14, 2026, 09:21 UTC

1 30647U 99025APE 26257.39026030  .00007549  00000-0  14987-2 0  9996
2 30647  98.9986 217.5153 0030564  56.0515  97.3448 14.62204040 20106

Śledź FENGYUN 1C DEB w czasie rzeczywistym z AllMySat

Download on the App Store